Zurück zum Katalog

STARLINK-3679

AktivKommunikationVLEO
NORAD 51973·PAYLOAD·🇺🇸 United States

Gestartet Mar 9, 2022 von Cape Canaveral Space Force Station

Loading…

Nächste Überflüge (nächste 24 Stunden)

TLE

AktuellSource: CelesTrak SupGP

Epoche: Sep 15, 2026, 01:30 UTC

1 51973C 22025T   26258.06298611 -.00052322  00000+0 -16808-2 0  2580
2 51973  53.1571 235.6636 0001256  93.1871  31.8020 15.31761087    17

Verfolge STARLINK-3679 in Echtzeit mit AllMySat

Download on the App Store